TimeCST,TemperatureF,Dew PointF,Humidity,Sea Level PressureIn,VisibilityMPH,Wind Direction,Wind SpeedMPH,Gust SpeedMPH,PrecipitationIn,Events,Conditions,WindDirDegrees,DateUTC
12:15 AM,37.4,37.4,100,30.17,7.0,NNW,6.9,-,N/A,,Clear,340,2012-11-04 05:15:00
12:35 AM,37.4,37.4,100,30.17,7.0,NNW,6.9,-,N/A,,Clear,340,2012-11-04 05:35:00
12:55 AM,37.0,37.0,100,30.18,7.0,North,6.9,-,N/A,,Clear,350,2012-11-04 05:55:00
1:15 AM,36.9,36.9,100,30.19,7.0,North,5.8,-,N/A,,Clear,350,2012-11-04 06:15:00
1:55 AM,36.5,36.5,100,30.19,7.0,North,6.9,-,N/A,,Clear,350,2012-11-04 06:55:00
1:15 AM,35.8,35.8,100,30.19,7.0,NNW,6.9,-,N/A,,Clear,340,2012-11-04 07:15:00
1:35 AM,35.6,35.6,100,30.19,7.0,North,5.8,-,N/A,,Clear,350,2012-11-04 07:35:00
1:55 AM,35.6,35.6,100,30.19,10.0,NNW,4.6,-,N/A,,Clear,340,2012-11-04 07:55:00
2:15 AM,35.1,35.1,100,30.19,10.0,NNW,4.6,-,N/A,,Clear,340,2012-11-04 08:15:00
2:35 AM,34.9,34.9,100,30.19,10.0,Calm,Calm,-,N/A,,Clear,0,2012-11-04 08:35:00
2:55 AM,33.6,33.6,100,30.20,7.0,Calm,Calm,-,N/A,,Clear,0,2012-11-04 08:55:00
3:15 AM,34.0,34.0,100,30.20,7.0,Calm,Calm,-,N/A,,Clear,0,2012-11-04 09:15:00
3:35 AM,34.0,34.0,100,30.21,7.0,Calm,Calm,-,N/A,,Clear,0,2012-11-04 09:35:00
3:55 AM,33.3,33.3,100,30.21,7.0,Calm,Calm,-,N/A,,Clear,0,2012-11-04 09:55:00
4:15 AM,32.2,32.2,100,30.21,5.0,Calm,Calm,-,N/A,,Clear,0,2012-11-04 10:15:00
4:35 AM,31.3,31.3,100,30.20,5.0,Calm,Calm,-,N/A,,Clear,0,2012-11-04 10:35:00
4:55 AM,32.0,32.0,100,30.21,7.0,Calm,Calm,-,N/A,,Clear,0,2012-11-04 10:55:00
5:15 AM,32.2,32.2,100,30.21,7.0,Calm,Calm,-,N/A,,Clear,0,2012-11-04 11:15:00
5:35 AM,32.4,32.4,100,30.21,10.0,Calm,Calm,-,N/A,,Clear,0,2012-11-04 11:35:00
5:55 AM,32.0,32.0,100,30.22,10.0,Calm,Calm,-,N/A,,Clear,0,2012-11-04 11:55:00
6:15 AM,32.2,32.2,100,30.23,10.0,Calm,Calm,-,N/A,,Clear,0,2012-11-04 12:15:00
6:35 AM,32.0,32.0,100,30.22,10.0,Calm,Calm,-,N/A,,Clear,0,2012-11-04 12:35:00
6:55 AM,31.6,31.6,100,30.23,7.0,Calm,Calm,-,N/A,,Clear,0,2012-11-04 12:55:00
7:15 AM,32.0,32.0,100,30.24,7.0,WNW,3.5,-,N/A,,Clear,300,2012-11-04 13:15:00
7:35 AM,34.3,34.3,100,30.25,10.0,Calm,Calm,-,N/A,,Clear,0,2012-11-04 13:35:00
7:55 AM,36.1,36.1,100,30.25,10.0,NNW,4.6,-,N/A,,Clear,330,2012-11-04 13:55:00
8:15 AM,37.9,37.0,97,30.25,10.0,NNW,5.8,-,N/A,,Clear,340,2012-11-04 14:15:00
8:35 AM,38.8,37.2,94,30.24,10.0,North,5.8,-,N/A,,Clear,350,2012-11-04 14:35:00
8:55 AM,40.1,37.6,91,30.24,10.0,North,6.9,-,N/A,,Clear,350,2012-11-04 14:55:00
9:15 AM,41.2,37.8,88,30.24,10.0,North,5.8,-,N/A,,Clear,10,2012-11-04 15:15:00
9:35 AM,42.8,36.5,78,30.24,10.0,North,4.6,-,N/A,,Clear,10,2012-11-04 15:35:00
9:55 AM,43.9,36.0,74,30.24,10.0,NNE,4.6,-,N/A,,Clear,20,2012-11-04 15:55:00
10:15 AM,45.3,36.5,71,30.25,10.0,North,3.5,-,N/A,,Clear,360,2012-11-04 16:15:00
10:35 AM,46.2,36.9,70,30.25,10.0,NW,6.9,-,N/A,,Scattered Clouds,320,2012-11-04 16:35:00
10:55 AM,46.9,36.1,66,30.24,10.0,North,9.2,-,N/A,,Scattered Clouds,350,2012-11-04 16:55:00
11:15 AM,47.7,35.6,63,30.24,10.0,NNE,5.8,-,N/A,,Scattered Clouds,20,2012-11-04 17:15:00
11:35 AM,48.2,36.0,63,30.23,10.0,North,4.6,-,N/A,,Mostly Cloudy,350,2012-11-04 17:35:00
11:55 AM,48.0,35.4,62,30.22,10.0,North,9.2,-,N/A,,Mostly Cloudy,350,2012-11-04 17:55:00
12:15 PM,47.7,34.9,61,30.22,10.0,NNW,4.6,-,N/A,,Scattered Clouds,330,2012-11-04 18:15:00
12:35 PM,49.1,35.2,59,30.21,10.0,North,6.9,-,N/A,,Scattered Clouds,360,2012-11-04 18:35:00
12:55 PM,49.6,36.3,60,30.20,10.0,North,9.2,-,N/A,,Scattered Clouds,350,2012-11-04 18:55:00
1:15 PM,49.1,34.3,57,30.20,10.0,NW,6.9,-,N/A,,Scattered Clouds,320,2012-11-04 19:15:00
1:35 PM,50.0,34.7,56,30.19,10.0,North,8.1,-,N/A,,Scattered Clouds,10,2012-11-04 19:35:00
1:55 PM,49.3,34.9,58,30.19,10.0,NNW,8.1,-,N/A,,Scattered Clouds,330,2012-11-04 19:55:00
2:15 PM,50.7,35.4,56,30.19,10.0,NNE,9.2,-,N/A,,Scattered Clouds,20,2012-11-04 20:15:00
2:35 PM,50.7,35.6,56,30.19,10.0,NNW,9.2,-,N/A,,Mostly Cloudy,340,2012-11-04 20:35:00
2:55 PM,50.4,35.8,57,30.20,10.0,NNW,8.1,-,N/A,,Mostly Cloudy,340,2012-11-04 20:55:00
3:15 PM,49.3,34.9,58,30.19,10.0,NNW,8.1,-,N/A,,Mostly Cloudy,340,2012-11-04 21:15:00
3:35 PM,49.1,35.6,60,30.19,10.0,North,6.9,-,N/A,,Mostly Cloudy,360,2012-11-04 21:35:00
3:55 PM,47.5,35.6,63,30.19,10.0,NW,5.8,-,N/A,,Scattered Clouds,320,2012-11-04 21:55:00
4:15 PM,47.3,36.3,66,30.19,10.0,NW,3.5,-,N/A,,Clear,320,2012-11-04 22:15:00
4:35 PM,46.6,35.8,66,30.19,10.0,NW,4.6,-,N/A,,Scattered Clouds,320,2012-11-04 22:35:00
4:55 PM,45.7,35.6,68,30.19,10.0,NW,4.6,-,N/A,,Scattered Clouds,310,2012-11-04 22:55:00
5:15 PM,43.7,35.1,72,30.19,10.0,Calm,Calm,-,N/A,,Clear,0,2012-11-04 23:15:00
5:35 PM,43.3,35.4,74,30.19,10.0,Calm,Calm,-,N/A,,Clear,0,2012-11-04 23:35:00
5:55 PM,41.4,34.9,78,30.20,10.0,Calm,Calm,-,N/A,,Scattered Clouds,0,2012-11-04 23:55:00
6:15 PM,40.1,35.6,84,30.20,10.0,Calm,Calm,-,N/A,,Scattered Clouds,0,2012-11-05 00:15:00
6:55 PM,37.9,34.9,89,30.18,10.0,Calm,Calm,-,N/A,,Clear,0,2012-11-05 00:55:00
7:15 PM,36.5,33.4,89,30.19,10.0,Calm,Calm,-,N/A,,Clear,0,2012-11-05 01:15:00
7:35 PM,34.0,33.8,99,30.19,10.0,Calm,Calm,-,N/A,,Clear,0,2012-11-05 01:35:00
7:55 PM,34.7,34.7,100,30.19,10.0,Calm,Calm,-,N/A,,Clear,0,2012-11-05 01:55:00
8:15 PM,34.0,34.0,100,30.19,10.0,WSW,4.6,-,N/A,,Clear,240,2012-11-05 02:15:00
8:35 PM,33.3,33.3,100,30.19,10.0,Calm,Calm,-,N/A,,Clear,0,2012-11-05 02:35:00
8:55 PM,33.4,33.4,100,30.19,10.0,Calm,Calm,-,N/A,,Clear,0,2012-11-05 02:55:00
9:15 PM,33.3,33.3,100,30.20,10.0,Calm,Calm,-,N/A,,Clear,0,2012-11-05 03:15:00
9:35 PM,32.7,32.7,100,30.19,10.0,Calm,Calm,-,N/A,,Clear,0,2012-11-05 03:35:00
9:55 PM,32.7,32.7,100,30.19,10.0,Calm,Calm,-,N/A,,Clear,0,2012-11-05 03:55:00
10:15 PM,32.0,32.0,100,30.19,10.0,Calm,Calm,-,N/A,,Clear,0,2012-11-05 04:15:00
10:55 PM,31.8,31.8,100,30.19,10.0,Calm,Calm,-,N/A,,Clear,0,2012-11-05 04:55:00